Content
SEND FEEDBACK

Daily
Averages
Monthly
Summary
United States of America

CENTRAL CITY, NEBRASKA


Home > North America > United States > Nebraska
Elevation: 1696 feet     Latitude: 41 07N     Longitude: 098 00W

WEATHER
 
SELECT A DAY
Number of Records: 436,650;   Date Range: 10/21/96 - 7/7/14
 
SHARE

PRINT THIS DATA

[ ← Previous Day ]
WEATHER ALMANAC - FEBRUARY 5, 2013
[ Next Day → ]
[ °C ]   °F
Weather ElementAverageHighLow
Temperature40.1 °F53.4 °F (3:35 pm)26.4 °F (1:15 am)
Dewpoint28.1 °F32.4 °F (10:35 am)23.5 °F (5:35 pm)
Humidity66.9 %100 % (1:15 am)32 % (4:15 pm)
Barometer29.95 in30.02 in (12:15 pm)29.83 in (3:55 am)
Wind Speed8.2 mph19.6 mph (10:55 am)
Wind Gust20.7 mph (10:15 am)
Weather ElementAverage
Visibility9.9 mi
Wind DirectionWSW (240.4 °)

Weather ElementTotal
Precipitation---
Heating Degree Days25.1 (Base 65)
Averaged from 67 records on February 5, 2013
WEATHER CONDITIONS BREAKOUT
WIND DIRECTION BREAKOUT
WEATHER BY HOUR - FEBRUARY 5, 2013
[ °C ]   °F
Local TimeTemperatureDewpointHumidityBarometerVisibilityWind DirectionWind SpeedGust SpeedPrecipitationEventsConditions
12:35 AM28.6 °F27.7 °F96 %29.87 in10.0 miNNW (330°)5.8 mphScattered Clouds
12:55 AM27.3 °F27.1 °F99 %29.86 in10.0 miWest (270°)5.8 mphClear
1:15 AM26.4 °F26.4 °F100 %29.86 in7.0 miWNW (290°)3.5 mphClear
1:35 AM26.6 °F26.6 °F100 %29.85 in7.0 miWest (260°)4.6 mphClear
1:55 AM27.0 °F27.0 °F100 %29.84 in7.0 miWSW (240°)3.5 mphClear
2:15 AM27.5 °F27.5 °F100 %29.84 in10.0 miWSW (240°)3.5 mphClear
2:35 AM28.8 °F28.8 °F100 %29.86 in10.0 miWSW (240°)5.8 mphClear
2:55 AM29.5 °F29.3 °F99 %29.85 in10.0 miSW (230°)8.1 mphClear
3:15 AM30.0 °F29.3 °F97 %29.84 in10.0 miWSW (240°)8.1 mphClear
3:35 AM30.2 °F29.3 °F96 %29.84 in10.0 miWSW (240°)8.1 mphClear
3:55 AM29.7 °F29.1 °F98 %29.83 in10.0 miWest (260°)8.1 mphMostly Cloudy
4:15 AM32.0 °F30.2 °F93 %29.83 in10.0 miWest (270°)8.1 mphOvercast
4:35 AM32.4 °F30.6 °F93 %29.83 in10.0 miWest (260°)4.6 mphOvercast
4:55 AM32.4 °F30.2 °F92 %29.84 in10.0 miWest (280°)5.8 mphOvercast
5:15 AM32.2 °F29.7 °F90 %29.86 in10.0 miWNW (300°)10.4 mphMostly Cloudy
5:35 AM31.8 °F28.4 °F87 %29.86 in10.0 miWNW (290°)9.2 mphScattered Clouds
6:15 AM31.1 °F27.7 °F87 %29.88 in10.0 miWNW (300°)6.9 mphOvercast
6:55 AM30.7 °F27.5 °F88 %29.88 in10.0 miWest (260°)6.9 mphMostly Cloudy
7:15 AM30.2 °F26.8 °F87 %29.89 in10.0 miWest (270°)9.2 mphScattered Clouds
7:35 AM30.2 °F26.8 °F87 %29.89 in10.0 miWest (270°)9.2 mphClear
7:55 AM30.2 °F26.6 °F86 %29.90 in10.0 miWest (270°)9.2 mphClear
8:15 AM31.5 °F27.0 °F83 %29.91 in10.0 miWest (280°)10.4 mphClear
8:35 AM32.0 °F28.2 °F86 %29.93 in10.0 miWNW (300°)10.4 mphClear
8:55 AM35.1 °F29.3 °F80 %29.96 in10.0 miWNW (300°)11.5 mphMostly Cloudy
9:15 AM37.4 °F29.8 °F74 %29.96 in10.0 miWNW (300°)9.2 mphMostly Cloudy
9:35 AM39.9 °F31.3 °F71 %29.97 in10.0 miWNW (300°)10.4 mphScattered Clouds
9:55 AM41.7 °F31.5 °F67 %29.98 in10.0 miNW (320°)12.7 mphClear
10:15 AM43.9 °F31.8 °F63 %29.99 in10.0 miNNW (330°)15.0 mph20.7 mphClear
10:35 AM45.9 °F32.4 °F59 %29.99 in10.0 miNNW (330°)12.7 mph18.4 mphClear
10:55 AM48.2 °F32.2 °F54 %30.00 in10.0 miNNW (340°)19.6 mphClear
11:15 AM48.9 °F31.1 °F50 %30.00 in10.0 miNorth (350°)13.8 mphClear
11:35 AM50.2 °F30.2 °F46 %30.01 in10.0 miNorth (350°)16.1 mph19.6 mphClear
11:55 AM50.5 °F29.8 °F45 %30.01 in10.0 miNorth (350°)17.3 mphClear
12:15 PM51.1 °F30.2 °F45 %30.02 in10.0 miNNW (340°)13.8 mph20.7 mphClear
12:35 PM51.6 °F30.0 °F44 %30.01 in10.0 miNorth (350°)11.5 mphClear
12:55 PM51.8 °F29.3 °F42 %30.01 in10.0 miNNW (340°)16.1 mphClear
1:15 PM52.0 °F28.0 °F40 %30.02 in10.0 miNNW (340°)17.3 mphClear
1:35 PM52.2 °F28.4 °F40 %30.01 in10.0 miNW (320°)11.5 mphClear
1:55 PM52.7 °F27.9 °F38 %30.01 in10.0 miNorth (350°)13.8 mphClear
2:15 PM52.7 °F27.0 °F37 %30.00 in10.0 miNW (320°)16.1 mphClear
2:35 PM52.9 °F26.1 °F35 %30.00 in10.0 miNNW (340°)15.0 mph18.4 mphClear
2:55 PM53.2 °F25.9 °F35 %29.99 in10.0 miNNW (340°)10.4 mphClear
3:15 PM53.1 °F25.0 °F34 %29.99 in10.0 miNorth (350°)11.5 mphClear
3:35 PM53.4 °F25.3 °F34 %29.99 in10.0 miNNW (330°)10.4 mphClear
3:55 PM53.1 °F24.8 °F33 %29.99 in10.0 miNorth (350°)9.2 mphClear
4:15 PM52.9 °F23.7 °F32 %29.99 in10.0 miNW (320°)8.1 mphClear
4:35 PM52.7 °F24.4 °F33 %29.99 in10.0 miNW (320°)5.8 mphClear
4:55 PM51.4 °F26.4 °F38 %29.99 in10.0 miCalmClear
5:15 PM50.2 °F27.3 °F41 %29.99 in10.0 miCalmClear
5:35 PM49.5 °F23.5 °F36 %29.99 in10.0 miCalmClear
5:55 PM44.6 °F25.5 °F47 %30.00 in10.0 miCalmClear
6:15 PM45.1 °F25.9 °F47 %30.00 in10.0 miCalmClear
6:35 PM45.5 °F24.8 °F44 %30.00 in10.0 miCalmClear
6:55 PM43.0 °F25.5 °F50 %30.00 in10.0 miEast (80°)3.5 mphClear
7:15 PM41.2 °F26.4 °F56 %30.01 in10.0 miSE (130°)3.5 mphClear
7:55 PM36.9 °F26.6 °F66 %30.01 in10.0 miESE (110°)5.8 mphClear
8:35 PM38.1 °F26.1 °F62 %30.01 in10.0 miESE (110°)6.9 mphClear
8:55 PM36.7 °F26.4 °F66 %30.01 in10.0 miSE (130°)4.6 mphClear
9:15 PM37.6 °F27.0 °F66 %30.01 in10.0 miSSE (150°)5.8 mphClear
9:35 PM38.3 °F26.8 °F63 %30.02 in10.0 miSouth (170°)6.9 mphClear
9:55 PM38.3 °F27.9 °F66 %30.02 in10.0 miSouth (180°)5.8 mphClear
10:15 PM37.9 °F29.1 °F71 %30.02 in10.0 miSE (140°)4.6 mphClear
10:35 PM36.1 °F30.0 °F78 %30.02 in10.0 miSE (140°)4.6 mphMostly Cloudy
10:55 PM36.5 °F30.0 °F77 %30.02 in10.0 miSE (140°)5.8 mphOvercast
11:15 PM37.2 °F29.8 °F75 %30.01 in10.0 miSSE (160°)5.8 mphOvercast
11:35 PM36.7 °F30.6 °F78 %30.01 in10.0 miSSE (160°)5.8 mphMostly Cloudy
11:55 PM37.4 °F30.9 °F77 %30.00 in10.0 miSE (140°)4.6 mphMostly Cloudy
Hourly data recorded from KAUH, located miles away from Central City, Nebraska







STORIES FROM OUR PARTNERS